When you browse on this site, cookies collect data to enhance your experience and personalize the content and advertising you see.
Visit our Privacy Policy to learn more. By continuing to use the site, you agree to this use of cookies and data.
  • In Hungary
  • List of Countries
  • For 7 days
  • Water Temperature
  • Satellite Maps
  • Weather Map
  • News
  • Weather Widgets
  • user-avatar
    Login

    Hourly Weather Moquegua

    Today, 25 June, Tuesday

    Time Temperature Precipitation Wind Pressure Humidity
    00:00 +14°C° 0 mm 1 mps 643 mmHg 50%
    01:00 +15°C° 0 mm 1 mps 642 mmHg 48%
    02:00 +14°C° 0 mm 1 mps 642 mmHg 50%
    03:00 +13°C° 0 mm 1 mps 642 mmHg 51%
    04:00 +12°C° 0 mm 1 mps 642 mmHg 53%
    05:00 +13°C° 0 mm 1 mps 642 mmHg 45%
    06:00 +15°C° 0 mm 1 mps 643 mmHg 37%
    07:00 +18°C° 0 mm 1 mps 644 mmHg 28%
    08:00 +20°C° 0 mm 1 mps 644 mmHg 26%
    09:00 +21°C° 0 mm 2 mps 645 mmHg 24%
    10:00 +24°C° 0 mm 2 mps 646 mmHg 21%
    11:00 +24°C° 0 mm 3 mps 645 mmHg 25%
    12:00 +24°C° 0 mm 3 mps 644 mmHg 28%
    13:00 +22°C° 0 mm 4 mps 644 mmHg 31%
    14:00 +22°C° 0 mm 4 mps 643 mmHg 33%
    15:00 +22°C° 0 mm 3 mps 643 mmHg 35%
    16:00 +21°C° 0 mm 2 mps 643 mmHg 36%
    17:00 +19°C° 0 mm 2 mps 643 mmHg 45%
    18:00 +18°C° 0 mm 1 mps 642 mmHg 54%
    19:00 +13°C° 0 mm 0 mps 642 mmHg 62%
    20:00 +15°C° 0 mm 1 mps 643 mmHg 58%
    21:00 +15°C° 0 mm 1 mps 643 mmHg 53%
    22:00 +16°C° 0 mm 1 mps 643 mmHg 48%
    23:00 +15°C° 0 mm 1 mps 643 mmHg 49%

    Tomorrow, 26 June, Wednesday

    Time Temperature Precipitation Wind Pressure Humidity
    00:00 +14°C° 0 mm 1 mps 642 mmHg 49%
    01:00 +14°C° 0 mm 1 mps 642 mmHg 50%
    02:00 +13°C° 0 mm 1 mps 641 mmHg 52%
    03:00 +13°C° 0 mm 1 mps 641 mmHg 54%
    04:00 +12°C° 0 mm 1 mps 640 mmHg 56%
    05:00 +13°C° 0 mm 1 mps 641 mmHg 51%
    06:00 +13°C° 0 mm 0 mps 641 mmHg 45%
    07:00 +14°C° 0 mm 0 mps 642 mmHg 40%
    08:00 +18°C° 0 mm 1 mps 642 mmHg 35%
    09:00 +20°C° 0 mm 2 mps 643 mmHg 29%
    10:00 +24°C° 0 mm 2 mps 644 mmHg 24%
    11:00 +25°C° 0 mm 3 mps 644 mmHg 24%
    12:00 +25°C° 0 mm 3 mps 643 mmHg 24%
    13:00 +26°C° 0 mm 3 mps 643 mmHg 24%
    14:00 +25°C° 0 mm 3 mps 642 mmHg 27%
    15:00 +24°C° 0 mm 3 mps 642 mmHg 30%
    16:00 +24°C° 0 mm 2 mps 642 mmHg 33%
    17:00 +20°C° 0 mm 2 mps 642 mmHg 41%
    18:00 +19°C° 0 mm 1 mps 641 mmHg 49%
    19:00 +14°C° 0 mm 0 mps 641 mmHg 57%
    20:00 +14°C° 0 mm 0 mps 641 mmHg 56%
    21:00 +14°C° 0 mm 0 mps 641 mmHg 56%
    22:00 +13°C° 0 mm 0 mps 642 mmHg 55%
    23:00 +13°C° 0 mm 0 mps 641 mmHg 55%

    Day after tomorrow, 27 June, Thursday

    Time Temperature Precipitation Wind Pressure Humidity
    00:00 +12°C° 0 mm 0 mps 641 mmHg 55%
    01:00 +12°C° 0 mm 0 mps 640 mmHg 55%
    02:00 +12°C° 0 mm 0 mps 640 mmHg 55%
    03:00 +12°C° 0 mm 0 mps 640 mmHg 55%
    04:00 +11°C° 0 mm 0 mps 640 mmHg 54%
    05:00 +12°C° 0 mm 0 mps 640 mmHg 49%
    06:00 +13°C° 0 mm 0 mps 641 mmHg 43%
    07:00 +14°C° 0 mm 0 mps 641 mmHg 38%
    08:00 +19°C° 0 mm 1 mps 642 mmHg 32%
    09:00 +21°C° 0 mm 2 mps 644 mmHg 26%
    10:00 +25°C° 0 mm 2 mps 645 mmHg 19%
    11:00 +26°C° 0 mm 3 mps 644 mmHg 20%
    12:00 +26°C° 0 mm 3 mps 644 mmHg 20%
    13:00 +27°C° 0 mm 3 mps 643 mmHg 21%
    14:00 +26°C° 0 mm 3 mps 643 mmHg 23%
    15:00 +25°C° 0 mm 3 mps 642 mmHg 26%
    16:00 +25°C° 0 mm 3 mps 642 mmHg 29%
    17:00 +21°C° 0 mm 2 mps 642 mmHg 38%
    18:00 +20°C° 0 mm 1 mps 641 mmHg 48%
    19:00 +15°C° 0 mm 0 mps 641 mmHg 57%
    20:00 +15°C° 0 mm 0 mps 641 mmHg 57%
    21:00 +14°C° 0 mm 0 mps 642 mmHg 57%
    22:00 +14°C° 0 mm 0 mps 642 mmHg 57%
    23:00 +14°C° 0 mm 0 mps 642 mmHg 56%

    28 June, Friday

    Time Temperature Precipitation Wind Pressure Humidity
    00:00 +13°C° 0 mm 0 mps 641 mmHg 55%
    01:00 +13°C° 0 mm 0 mps 641 mmHg 54%
    02:00 +13°C° 0 mm 0 mps 641 mmHg 55%
    03:00 +13°C° 0 mm 0 mps 641 mmHg 55%
    04:00 +13°C° 0 mm 0 mps 640 mmHg 56%
    05:00 +14°C° 0 mm 0 mps 641 mmHg 50%
    06:00 +14°C° 0 mm 0 mps 642 mmHg 45%
    07:00 +15°C° 0 mm 0 mps 642 mmHg 39%
    08:00 +20°C° 0 mm 1 mps 643 mmHg 35%
    09:00 +22°C° 0 mm 1 mps 644 mmHg 30%
    10:00 +24°C° 0 mm 2 mps 645 mmHg 26%
    11:00 +25°C° 0 mm 2 mps 645 mmHg 26%
    12:00 +26°C° 0 mm 3 mps 644 mmHg 25%
    13:00 +27°C° 0 mm 4 mps 644 mmHg 24%
    14:00 +26°C° 0 mm 3 mps 644 mmHg 30%
    15:00 +24°C° 0 mm 3 mps 643 mmHg 35%
    16:00 +22°C° 0 mm 3 mps 643 mmHg 40%
    17:00 +20°C° 0 mm 2 mps 643 mmHg 49%
    18:00 +19°C° 0 mm 1 mps 642 mmHg 58%
    19:00 +15°C° 0 mm 0 mps 642 mmHg 66%
    20:00 +15°C° 0 mm 0 mps 643 mmHg 67%
    21:00 +14°C° 0 mm 0 mps 643 mmHg 67%
    22:00 +14°C° 0 mm 0 mps 643 mmHg 67%
    23:00 +14°C° 0 mm 0 mps 643 mmHg 67%

    29 June, Saturday

    Time Temperature Precipitation Wind Pressure Humidity
    00:00 +13°C° 0 mm 0 mps 643 mmHg 67%
    01:00 +13°C° 0 mm 0 mps 642 mmHg 67%
    02:00 +13°C° 0 mm 0 mps 642 mmHg 68%
    03:00 +12°C° 0 mm 0 mps 642 mmHg 68%
    04:00 +12°C° 0 mm 0 mps 641 mmHg 69%
    05:00 +13°C° 0 mm 0 mps 642 mmHg 63%
    06:00 +14°C° 0 mm 0 mps 642 mmHg 58%
    07:00 +15°C° 0 mm 0 mps 643 mmHg 52%
    08:00 +20°C° 0 mm 1 mps 644 mmHg 45%
    09:00 +22°C° 0 mm 1 mps 645 mmHg 38%
    10:00 +24°C° 0 mm 2 mps 645 mmHg 31%
    11:00 +25°C° 0 mm 3 mps 645 mmHg 30%
    12:00 +26°C° 0 mm 3 mps 644 mmHg 30%
    13:00 +26°C° 0 mm 4 mps 644 mmHg 29%
    14:00 +25°C° 0 mm 3 mps 644 mmHg 34%
    15:00 +24°C° 0 mm 3 mps 643 mmHg 38%
    16:00 +22°C° 0 mm 3 mps 643 mmHg 43%
    17:00 +20°C° 0 mm 2 mps 642 mmHg 50%
    18:00 +19°C° 0 mm 1 mps 642 mmHg 58%
    19:00 +15°C° 0 mm 0 mps 642 mmHg 66%
    20:00 +15°C° 0 mm 0 mps 642 mmHg 67%
    21:00 +14°C° 0 mm 0 mps 642 mmHg 68%
    22:00 +14°C° 0 mm 0 mps 642 mmHg 69%
    23:00 +14°C° 0 mm 0 mps 642 mmHg 68%

    30 June, Sunday

    Time Temperature Precipitation Wind Pressure Humidity
    00:00 +13°C° 0 mm 0 mps 642 mmHg 68%
    01:00 +13°C° 0 mm 0 mps 641 mmHg 68%
    02:00 +13°C° 0 mm 0 mps 641 mmHg 67%
    03:00 +13°C° 0 mm 0 mps 641 mmHg 66%
    04:00 +13°C° 0 mm 0 mps 641 mmHg 66%
    05:00 +14°C° 0 mm 0 mps 641 mmHg 62%
    06:00 +14°C° 0 mm 0 mps 642 mmHg 58%
    07:00 +15°C° 0 mm 0 mps 642 mmHg 54%
    08:00 +20°C° 0 mm 1 mps 643 mmHg 48%
    09:00 +21°C° 0 mm 2 mps 644 mmHg 41%
    10:00 +24°C° 0 mm 2 mps 644 mmHg 34%
    11:00 +25°C° 0 mm 3 mps 644 mmHg 33%
    12:00 +25°C° 0 mm 3 mps 643 mmHg 32%
    13:00 +26°C° 0 mm 3 mps 643 mmHg 31%
    14:00 +25°C° 0 mm 3 mps 642 mmHg 35%
    15:00 +24°C° 0 mm 3 mps 642 mmHg 38%
    16:00 +22°C° 0 mm 3 mps 642 mmHg 41%
    17:00 +20°C° 0 mm 2 mps 642 mmHg 47%
    18:00 +20°C° 0 mm 1 mps 642 mmHg 53%
    19:00 +16°C° 0 mm 0 mps 642 mmHg 59%
    20:00 +16°C° 0 mm 0 mps 642 mmHg 58%
    21:00 +16°C° 0 mm 0 mps 642 mmHg 57%
    22:00 +16°C° 0 mm 0 mps 642 mmHg 56%
    23:00 +16°C° 0 mm 0 mps 642 mmHg 55%
    Show more